Hourly Weather Kuntaur

Today, 25 September, Friday

Time Temperature Precipitation Wind Pressure Humidity
00:00 +26°C° 0 mm 1 mps 759 mmHg 92%
01:00 +26°C° 0 mm 1 mps 758 mmHg 92%
02:00 +26°C° 0 mm 1 mps 758 mmHg 93%
03:00 +26°C° 0 mm 1 mps 758 mmHg 93%
04:00 +26°C° 0 mm 1 mps 758 mmHg 93%
05:00 +26°C° 0 mm 1 mps 759 mmHg 93%
06:00 +27°C° 0.1 mm 1 mps 759 mmHg 91%
07:00 +27°C° 0.1 mm 1 mps 760 mmHg 88%
08:00 +28°C° 0.1 mm 1 mps 760 mmHg 85%
09:00 +30°C° 0 mm 1 mps 760 mmHg 79%
10:00 +32°C° 0 mm 1 mps 760 mmHg 72%
11:00 +31°C° 0 mm 0 mps 759 mmHg 66%
12:00 +34°C° 0 mm 1 mps 759 mmHg 63%
13:00 +34°C° 0 mm 1 mps 758 mmHg 61%
14:00 +35°C° 0 mm 1 mps 757 mmHg 59%
15:00 +34°C° 0 mm 1 mps 757 mmHg 62%
16:00 +34°C° 0 mm 1 mps 757 mmHg 64%
17:00 +33°C° 0 mm 1 mps 757 mmHg 67%
18:00 +32°C° 0 mm 1 mps 757 mmHg 69%
19:00 +31°C° 0 mm 1 mps 758 mmHg 71%
20:00 +30°C° 0 mm 1 mps 758 mmHg 72%
21:00 +30°C° 0 mm 1 mps 758 mmHg 74%
22:00 +29°C° 0 mm 1 mps 759 mmHg 76%
23:00 +29°C° 0 mm 1 mps 759 mmHg 77%

Tomorrow, 26 September, Saturday

Time Temperature Precipitation Wind Pressure Humidity
00:00 +29°C° 0 mm 2 mps 758 mmHg 79%
01:00 +28°C° 0 mm 2 mps 758 mmHg 80%
02:00 +28°C° 0 mm 2 mps 758 mmHg 82%
03:00 +27°C° 0.4 mm 3 mps 757 mmHg 85%
04:00 +27°C° 0.4 mm 3 mps 757 mmHg 88%
05:00 +26°C° 0.4 mm 4 mps 757 mmHg 91%
06:00 +27°C° 0 mm 4 mps 758 mmHg 89%
07:00 +28°C° 0 mm 3 mps 758 mmHg 87%
08:00 +29°C° 0 mm 3 mps 759 mmHg 86%
09:00 +30°C° 0 mm 3 mps 758 mmHg 80%
10:00 +33°C° 0 mm 3 mps 758 mmHg 74%
11:00 +35°C° 0 mm 4 mps 758 mmHg 68%
12:00 +35°C° 0 mm 4 mps 757 mmHg 66%
13:00 +36°C° 0 mm 4 mps 756 mmHg 65%
14:00 +36°C° 0 mm 4 mps 755 mmHg 63%
15:00 +36°C° 0 mm 3 mps 755 mmHg 66%
16:00 +35°C° 0 mm 3 mps 755 mmHg 68%
17:00 +34°C° 0 mm 3 mps 754 mmHg 71%
18:00 +33°C° 0 mm 3 mps 755 mmHg 76%
19:00 +31°C° 0 mm 3 mps 755 mmHg 81%
20:00 +30°C° 0 mm 4 mps 756 mmHg 86%
21:00 +29°C° 0 mm 4 mps 756 mmHg 88%
22:00 +28°C° 0 mm 4 mps 756 mmHg 89%
23:00 +28°C° 0 mm 3 mps 756 mmHg 91%

Day after tomorrow, 27 September, Sunday

Time Temperature Precipitation Wind Pressure Humidity
00:00 +27°C° 0 mm 4 mps 756 mmHg 92%
01:00 +27°C° 0 mm 4 mps 756 mmHg 93%
02:00 +27°C° 0 mm 4 mps 755 mmHg 94%
03:00 +27°C° 0 mm 4 mps 755 mmHg 95%
04:00 +26°C° 0 mm 3 mps 755 mmHg 95%
05:00 +26°C° 0 mm 3 mps 755 mmHg 96%
06:00 +27°C° 0 mm 4 mps 756 mmHg 92%
07:00 +28°C° 0 mm 4 mps 756 mmHg 88%
08:00 +29°C° 0 mm 5 mps 757 mmHg 84%
09:00 +30°C° 0 mm 5 mps 757 mmHg 79%
10:00 +33°C° 0 mm 5 mps 757 mmHg 73%
11:00 +34°C° 0 mm 5 mps 757 mmHg 68%
12:00 +35°C° 0 mm 5 mps 756 mmHg 66%
13:00 +35°C° 0 mm 5 mps 755 mmHg 65%
14:00 +35°C° 0 mm 4 mps 755 mmHg 63%
15:00 +35°C° 0 mm 4 mps 755 mmHg 67%
16:00 +34°C° 0 mm 3 mps 755 mmHg 71%
17:00 +33°C° 0 mm 3 mps 755 mmHg 75%
18:00 +31°C° 0 mm 3 mps 755 mmHg 78%
19:00 +30°C° 0 mm 3 mps 756 mmHg 81%
20:00 +29°C° 0 mm 3 mps 757 mmHg 84%
21:00 +28°C° 0 mm 3 mps 757 mmHg 86%
22:00 +27°C° 0 mm 3 mps 757 mmHg 89%
23:00 +27°C° 0 mm 2 mps 757 mmHg 91%

28 September, Monday

Time Temperature Precipitation Wind Pressure Humidity
00:00 +26°C° 0 mm 2 mps 757 mmHg 93%
01:00 +26°C° 0 mm 2 mps 757 mmHg 94%
02:00 +26°C° 0 mm 1 mps 756 mmHg 96%
03:00 +25°C° 0 mm 1 mps 756 mmHg 96%
04:00 +25°C° 0 mm 1 mps 757 mmHg 97%
05:00 +25°C° 0 mm 2 mps 757 mmHg 97%
06:00 +26°C° 0 mm 2 mps 757 mmHg 93%
07:00 +27°C° 0 mm 2 mps 757 mmHg 90%
08:00 +28°C° 0 mm 3 mps 758 mmHg 86%
09:00 +29°C° 0 mm 3 mps 758 mmHg 81%
10:00 +30°C° 0 mm 3 mps 758 mmHg 76%
11:00 +31°C° 0 mm 3 mps 758 mmHg 72%
12:00 +31°C° 0 mm 3 mps 757 mmHg 70%
13:00 +33°C° 0 mm 3 mps 756 mmHg 69%
14:00 +33°C° 0 mm 3 mps 756 mmHg 67%
15:00 +33°C° 0 mm 3 mps 756 mmHg 69%
16:00 +32°C° 0 mm 2 mps 756 mmHg 71%
17:00 +32°C° 0 mm 2 mps 755 mmHg 73%
18:00 +30°C° 0 mm 2 mps 756 mmHg 76%
19:00 +29°C° 0 mm 2 mps 757 mmHg 78%
20:00 +28°C° 0 mm 1 mps 757 mmHg 81%
21:00 +28°C° 0 mm 2 mps 757 mmHg 82%
22:00 +28°C° 0 mm 2 mps 758 mmHg 84%
23:00 +27°C° 0 mm 2 mps 758 mmHg 86%

29 September, Tuesday

Time Temperature Precipitation Wind Pressure Humidity
00:00 +27°C° 0 mm 2 mps 757 mmHg 88%
01:00 +26°C° 0 mm 2 mps 757 mmHg 90%
02:00 +26°C° 0 mm 2 mps 757 mmHg 92%
03:00 +26°C° 0 mm 2 mps 757 mmHg 93%
04:00 +26°C° 0 mm 1 mps 757 mmHg 93%
05:00 +25°C° 0 mm 1 mps 757 mmHg 94%
06:00 +27°C° 0 mm 1 mps 758 mmHg 90%
07:00 +28°C° 0 mm 1 mps 758 mmHg 85%
08:00 +29°C° 0 mm 1 mps 758 mmHg 81%
09:00 +30°C° 0 mm 2 mps 758 mmHg 75%
10:00 +32°C° 0 mm 2 mps 758 mmHg 69%
11:00 +34°C° 0 mm 2 mps 758 mmHg 63%
12:00 +34°C° 0 mm 1 mps 757 mmHg 60%
13:00 +35°C° 0 mm 1 mps 756 mmHg 56%
14:00 +36°C° 0 mm 1 mps 756 mmHg 52%
15:00 +35°C° 0 mm 1 mps 756 mmHg 55%
16:00 +35°C° 0 mm 1 mps 756 mmHg 58%
17:00 +35°C° 0 mm 1 mps 755 mmHg 61%
18:00 +33°C° 0.1 mm 1 mps 756 mmHg 63%
19:00 +32°C° 0.1 mm 1 mps 756 mmHg 65%
20:00 +31°C° 0.1 mm 1 mps 757 mmHg 68%
21:00 +30°C° 0.4 mm 2 mps 757 mmHg 74%
22:00 +29°C° 0.4 mm 2 mps 757 mmHg 81%
23:00 +28°C° 0.4 mm 3 mps 758 mmHg 87%

30 September, Wednesday

Time Temperature Precipitation Wind Pressure Humidity
00:00 +27°C° 0.9 mm 3 mps 757 mmHg 89%
01:00 +27°C° 0.9 mm 3 mps 757 mmHg 90%
02:00 +27°C° 0.9 mm 3 mps 756 mmHg 92%
03:00 +27°C° 0 mm 3 mps 756 mmHg 92%
04:00 +27°C° 0 mm 3 mps 756 mmHg 92%
05:00 +27°C° 0 mm 2 mps 756 mmHg 92%
06:00 +27°C° 0 mm 2 mps 757 mmHg 89%
07:00 +28°C° 0 mm 2 mps 757 mmHg 85%
08:00 +29°C° 0 mm 3 mps 757 mmHg 82%
09:00 +31°C° 0 mm 2 mps 757 mmHg 73%
10:00 +34°C° 0 mm 2 mps 757 mmHg 64%
11:00 +36°C° 0 mm 2 mps 757 mmHg 55%
12:00 +36°C° 0 mm 2 mps 756 mmHg 52%
13:00 +37°C° 0 mm 2 mps 756 mmHg 49%
14:00 +38°C° 0 mm 2 mps 755 mmHg 46%
15:00 +36°C° 0 mm 1 mps 755 mmHg 50%
16:00 +36°C° 0 mm 1 mps 755 mmHg 53%
17:00 +35°C° 0 mm 1 mps 754 mmHg 56%
18:00 +34°C° 0 mm 1 mps 755 mmHg 58%
19:00 +32°C° 0 mm 2 mps 755 mmHg 60%
20:00 +31°C° 0 mm 2 mps 756 mmHg 62%
21:00 +30°C° 0.2 mm 4 mps 756 mmHg 69%
22:00 +29°C° 0.2 mm 5 mps 757 mmHg 76%
23:00 +28°C° 0.2 mm 7 mps 757 mmHg 83%
Show more